www.pogodaiklimat.ru

Погода и климат >> Архив погоды >> Латвия >> Колка


ПОГОДА в Колке

  • Прогноз погоды в Колке
  • Монитор погоды в Колке

АРХИВ ПОГОДЫ в Колке

Время (UTC), дата Ветер
(напр.,м/с)
 
Видим.   Явления Облачность Т
(С)
Тd
(С)
f
(%)
Тe
(С)
Тes
(С)
Комфортность P
(гПа)
Po
(гПа)
Тmin
(С)
Tmax
(С)
R
(мм)
R24
(мм)
S
(см)
15 13.09 З 7 н/о н/о +14.7 +13 +13 1014.0 1013.5
18 13.09 СЗ 3 н/о н/о +13.2 +13 +13 1016.8 1016.3
21 13.09 З 3 н/о н/о +13.1 +13 +13 1018.6 1018.1
00 14.09 З 3 н/о н/о +14.6 +14 +14 1018.8 1018.3
03 14.09 З 3 н/о н/о +14.0 +14 +14 1019.2 1018.7
06 14.09 З 4 н/о н/о +15.2 +15 +15 1019.9 1019.4
09 14.09 З 6 н/о н/о +15.8 +15 +15 1021.3 1020.8
12 14.09 З 5 н/о н/о +15.3 +14 +14 1021.4 1020.9
15 14.09 З 5 н/о н/о +14.2 +13 +13 1021.6 1021.1
18 14.09 З 3 н/о н/о +13.5 +13 +13 1020.9 1020.4
21 14.09 ЮЗ 2 н/о н/о +10.6 +10 +10 1019.3 1018.8
00 15.09 ЮЗ 2 н/о н/о +10.6 +10 +10 1016.7 1016.2
03 15.09 ЮЗ 3 н/о н/о +11.2 +10 +10 1012.6 1012.1
06 15.09 ЮЗ 6 н/о н/о +10.8 +9 +9 1007.4 1006.9
09 15.09 ЮЗ 7 н/о н/о +12.5 +11 +11 1002.0 1001.5
12 15.09 ЮЗ 8 н/о н/о +13.9 +12 +12 999.1 998.6
15 15.09 З 8 н/о н/о +15.4 +14 +14 998.6 998.1
18 15.09 З 6 н/о н/о +14.1 +13 +13 998.1 997.6
21 15.09 З 6 н/о н/о +14.2 +13 +13 997.2 996.7
00 16.09 З 5 н/о н/о +13.7 +13 +13 996.8 996.3
03 16.09 З 8 н/о н/о +13.8 +12 +12 996.4 995.9
06 16.09 З 6 н/о н/о +14.4 +13 +13 996.8 996.3
09 16.09 З 8 н/о н/о +14.5 +13 +13 998.4 997.9
12 16.09 З 6 н/о н/о +14.3 +13 +13 1000.1 999.6
15 16.09 З 6 н/о н/о +13.5 +12 +12 1000.8 1000.3
18 16.09 З 3 н/о н/о +11.6 +11 +11 1000.7 1000.2
21 16.09 СЗ 3 н/о н/о +10.7 +10 +10 1000.8 1000.3
00 17.09 З 2 н/о н/о +9.4 +9 +9 1000.4 999.9
03 17.09 СЗ 2 н/о н/о +9.1 +9 +9 1000.3 999.8
06 17.09 З 4 н/о н/о +9.4 +8 +8 1000.0 999.5
09 17.09 В 1 н/о н/о +12.0 +13 +13 999.4 998.9
12 17.09 СЗ 3 н/о н/о +14.8 +15 +15 998.2 997.7
15 17.09 СВ 2 н/о н/о +11.6 +11 +11 997.2 996.7
18 17.09 З 2 н/о н/о +7.0 +6 +6 997.3 996.8
21 17.09 нст 1 н/о н/о +8.7 997.7 997.2
00 18.09 СВ 4 н/о н/о +9.7 +8 +8 999.2 998.7
03 18.09 С 2 н/о н/о +8.5 +8 +8 1000.6 1000.1
06 18.09 нст 3 н/о н/о +11.6 1002.3 1001.8
09 18.09 С 3 н/о н/о +12.6 +12 +12 1004.5 1004.0
12 18.09 С 3 н/о н/о +12.4 +12 +12 1006.7 1006.2
15 18.09 С 4 н/о н/о +12.1 +11 +11 1008.5 1008.0
18 18.09 С 5 н/о н/о +11.0 +9 +9 1010.9 1010.4
21 18.09 С 2 н/о н/о +9.3 +9 +9 1011.8 1011.3
00 19.09 З 2 н/о н/о +8.9 +8 +8 1013.0 1012.4
03 19.09 З 1 н/о н/о +6.1 +7 +7 1013.4 1012.9
06 19.09 СЗ 2 н/о н/о +9.7 +9 +9 1014.1 1013.6
09 19.09 СЗ 6 н/о н/о +11.5 +10 +10 1015.6 1015.1
12 19.09 З 2 н/о н/о +9.9 +10 +10 1015.6 1015.1
15 19.09 С 5 н/о н/о +9.7 +8 +8 1016.4 1015.9
18 19.09 С 3 н/о н/о +9.5 +8 +8 1017.9 1017.4
21 19.09 С 8 н/о н/о +9.1 +6 +6 1018.9 1018.4
00 20.09 С 6 н/о н/о +9.0 +6 +6 1019.6 1019.1
03 20.09 СВ 3 н/о н/о +8.4 +7 +7 1019.9 1019.4
06 20.09 СЗ 3 н/о н/о +9.4 +8 +8 1020.6 1020.1
09 20.09 З 3 н/о н/о +12.0 +11 +11 1020.9 1020.4

 

Местоположение метеостанции Колка (Латвия): широта 57.75 долгота 22.60 высота над уровнем моря 5 м.

В архиве по умолчанию представлена погода в Колке за последнюю неделю. Архивные данные за месяц целиком и за предыдущие месяцы, начиная с января 2011 года, Вы можете получить, выбрав интересующий диапазон дат из раскрывающегося списка и нажав кнопку "Ввод!".


*Определитесь, кто Вы:
робот инопланетянин человек

Внимание! Время в таблицах - всемирное. Для получения местного времени необходимо прибавить поправку, которая равна 2 ч.

Смотрите также архив погоды в соседних городах и на ближайших метеорологических станциях:

Погода в Сырве (Эстония) (38 км)
Погода на Рухну (Эстония) (40 км)
Погода в Мерсрагсе (Латвия) (54 км)
Погода в Стенде (Латвия) (63 км)
Погода в Вентспилсе (Латвия) (75 км)
Погода в Вилсанди (Эстония) (84 км)
Погода на Кихну (Эстония) (90 км)
Погода в Айнажи (Латвия) (106 км)
Погода в Виртсу (Эстония) (106 км)
Погода в Скульте (Латвия) (119 км)

Пояснения к столбцам:

Ветер - указаны скорость ветра в м/с - средняя за 10 мин, порывы в срок и между сроками (в фигурных скобках) и направление, откуда дует ветер: С - северный, СВ - северо-восточный, В - восточный, ЮВ - юго-восточный, Ю - южный, ЮЗ - юго-западный, З - западный, СЗ - северо-западный.
Видимость - горизонтальная дальность видимости в метрах или километрах. При видимости от 1 до 10 км при отсутствии осадков обычно наблюдается дымка, при ухудшении видимости до 1 км и менее - туман. В сухую погоду видимость может ухудшаться дымом, пылью или мглою.
Явления - указаны атмосферные явления, наблюдавшиеся в срок или в последний час перед сроком; фигурными скобками обозначены явления, наблюдавшиеся между сроками (за 1-3 часа до срока); квадратными скобками обозначены град или гололедные отложения с указанием их диаметра в мм.
Облачность - указаны через наклонную черту общая и нижняя облачность в баллах и высота нижней границы облаков в метрах; квадратными скобками обозначены формы облаков: Ci - перистые, Cs - перисто-слоистые, Cc - перисто-кучевые, Ac - высококучевые, As - высокослоистые, Sc - слоисто-кучевые, Ns - слоисто-дождевые, Cu - кучевые, Cb - кучево-дождевые. Подробнее классификацию облаков см. в Атласе облаков (PDF).
T - Температура воздуха - температура, измеренная на высоте 2 м над землей.
Td - Температура точки росы - температура, при понижении до которой содержащийся в воздухе водяной пар достигнет насыщения.
f - Относительная влажность воздуха - влажноcть воздуха, измеренная на высоте 2 м над землей.
Te - Эффективная температура - температура, которую ощущает одетый по сезону человек в тени. Характеристика душности погоды. При расчете учитывается влияние влажности воздуха и скорости ветра на теплоощущения человека.
Tes - Эффективная температура на солнце - температура, которую ощущает человек, с поправкой на солнечный нагрев. Характеристика знойности погоды. Зависит от высоты солнца над горизонтом, облачности и скорости ветра. Ночью, в пасмурную погоду, а также при ветре 12 м/с и более поправка равна нулю.
P - Атмосферное давление - приведенное к уровню моря атмосферное давление.
Po - Атмосферное давление - измеренное на уровне метеостанции атмосферное давление.
Tmin - Минимальная температура - минимум температуры воздуха на высоте 2 м над землей.
Tmax - Максимальная температура - максимум температуры воздуха на высоте 2 м над землей.
R - Количество осадков - Количество выпавших осадков за период времени, мм. При наведении курсора мыши на число - период времени, за который выпало указанное количество осадков.
R24 - Количество осадков - Количество выпавших осадков за 24 часа, мм.
S - Снежный покров - Высота снежного покрова, см. При наведении курсора мыши на число - состояние снежного покрова и степень покрытия местности в баллах.